Location: Briis
(48.6240°N, 2.1211°E)
Time: 07:19:42
(UTC+00:00)

USA 234 - Pass Details

Date: 25 September 2020
Orbit: 1102 x 1106 km, 123.0° (Epoch: 16 October)

Event Time Altitude Azimuth Distance (km) Brightness Sun altitude
Rises 02:18:08 0° 101° (E) 3,915 6.6 -31.9°
Reaches altitude 10° 02:20:39 10° 98° (E) 2,959 5.9 -31.6°
Maximum altitude 02:27:01 58° 21° (NNE) 1,268 3.7 -30.8°
Enters shadow 02:30:49 26° 313° (NW) 2,042 4.5 -30.3°
